Flag for Australia Weather past 2 weeks in Bendigo, Victoria, Australia

Now
70 °F

Mild.


Feels Like: 70 °F
Forecast: 65 / 95 °F
Wind: 9 mph from Southeast

Location: Bendigo Airport Aws

Current Time: Dec 22, 2014 at 8:17:38 AM

Latest Report: Dec 22, 2014 at 7:00 AM


Visibility: N/A

Pressure: 29.85 "Hg

Humidity: 54%

Dew point: 52 °F

Location of BendigoLocation

Historic Weather in Bendigo — Graph

°F

Bendigo temperature yesterday

Maximum temperature yesterday: 91 °F (at 6:00 PM)
Minimum temperature yesterday: 57 °F (at 6:00 AM)
Average temperature yesterday: 76 °F

Past Weeks' High & Low Weather Summary

 TemperatureHumidityPressure
High92 °F (Dec 15, 3:00 PM)87% (Dec 9, 6:00 AM)30.11 "Hg (Dec 9, 6:00 AM)
Low47 °F (Dec 17, 6:00 AM)10% (Dec 16, 12:00 PM)29.38 "Hg (Dec 16, 4:00 AM)
Average68 °F51%29.82 "Hg
* Reported Dec 7 7:00 AM — Dec 22 7:00 AM, Bendigo, Weather by CustomWeather, © 2014

Note: Actual official high and low records may vary slightly from our data, if they occured in-between our weather recording intervals... More about our weather records

Advertising

Bendigo weather history for previous 24 hours

 ConditionsComfort  
Time TempWeatherWind HumidityBarometerVisibility
7:00 AM
Dec 22
70 °FMild.9 mph54%29.85 "HgN/A
6:00 AM65 °FMild.9 mph59%29.84 "HgN/A
4:00 AM67 °FMild.9 mph53%29.83 "HgN/A
3:00 AM68 °FPassing clouds.14 mph52%29.84 "HgN/A
1:00 AM72 °FMild.12 mph51%29.86 "HgN/A
12:00 AM74 °FPassing clouds.9 mph46%29.88 "HgN/A
10:00 PM
Dec 21
76 °FMild.No wind32%29.86 "HgN/A
9:00 PM86 °FOvercast.7 mph21%29.84 "HgN/A
7:00 PM90 °FHot.3 mph17%29.82 "HgN/A
6:00 PM91 °FHot.7 mph18%29.82 "HgN/A
4:00 PM90 °FHot.6 mph19%29.86 "HgN/A
3:00 PM90 °FPassing clouds.12 mph19%29.88 "HgN/A
1:00 PM88 °FHot.14 mph23%29.93 "HgN/A
12:00 PM85 °FPleasantly warm.10 mph26%29.94 "HgN/A
10:00 AM78 °FPleasantly warm.8 mph35%29.95 "HgN/A
9:00 AM75 °FMild.6 mph40%29.96 "HgN/A
Weather by CustomWeather, © 2014

See weather overviewHow to use our weather pages